Nashville, TN

6:50 AM CDT on June 25, 2017 (GMT -0500)
Nashville International

Weather History for KBNA - November, 2011

Change the Weather History Date:

Sunday, November 13, 2011

  Actual Average Record
Temperature  
Mean Temperature 65 °F 51 °F  
Max Temperature 73 °F 61 °F 79 °F (1985)
Min Temperature 56 °F 40 °F 18 °F (1911)
Degree Days  
Heating Degree Days 0    
Month to date heating degree days 162  
Since 1 July heating degree days 401  
Cooling Degree Days 0    
Month to date cooling degree days 0  
Year to date cooling degree days 1913  
Growing Degree Days 14 (Base 50)    
Moisture  
Dew Point 47 °F    
Average Humidity 54    
Maximum Humidity 67    
Minimum Humidity 40    
Precipitation  
Precipitation 0.00 in 0.13 in 1.24 in (1889)
Month to date precipitation 0.50 1.61  
Year to date precipitation 42.24 40.31  
Snow  
Snow 0.00 in - T in (2014)
Month to date snowfall 0.0  
Since 1 July snowfall 0.0  
Since 1 September snowfall 0.0  
Snow Depth 0.00 in    
Sea Level Pressure  
Sea Level Pressure 29.94 in    
Wind  
Wind Speed 18 mph (SSW)    
Max Wind Speed 32 mph    
Max Gust Speed 45 mph    
Visibility 10 miles    
Events      
T = Trace of Precipitation, MM = Missing Value Source: NWS Daily Summary

Daily Weather History Graph

Daily Weather History Graph

Search for Another Location

Airport or City:

Trip Planner

Search our weather history database for the weather conditions in past years. The results will help you decide how hot, cold, wet, or windy it might be!

Date:

Astronomy

Nov. 13, 2011 Rise Set
Actual Time 6:21 AM CST 4:40 PM CST
Civil Twilight 5:53 AM CST 5:07 PM CST
Nautical Twilight 5:23 AM CST 5:38 PM CST
Astronomical Twilight 4:52 AM CST 6:08 PM CST
Moon 6:51 PM CST (11/13) 8:50 AM CST (11/13)
Length of Visible Light 11h 13m
Length of Day
10h 19m
Waning Gibbous, 92% of the Moon is Illuminated
Nov 13
Waning Gibbous
Nov 18
Last Quarter
Nov 25
New
Dec 2
First Quarter
Dec 10
Full

Hourly Weather History & Observations

Time (CST) Temp. Dew Point Humidity Pressure Visibility Wind Dir Wind Speed Gust Speed Precip Events Conditions
12:53 AM 57.0 °F 34.0 °F 42% 30.04 in 10.0 mi South 13.8 mph 24.2 mph N/A   Overcast
1:53 AM 57.0 °F 36.0 °F 45% 30.02 in 10.0 mi South 18.4 mph 29.9 mph N/A   Overcast
2:53 AM 57.9 °F 37.0 °F 46% 30.02 in 10.0 mi South 18.4 mph 28.8 mph N/A   Overcast
3:53 AM 57.0 °F 37.9 °F 49% 30.01 in 10.0 mi South 16.1 mph 28.8 mph N/A   Overcast
4:53 AM 57.0 °F 39.9 °F 53% 30.01 in 10.0 mi SSW 21.9 mph 31.1 mph N/A   Overcast
5:53 AM 57.9 °F 41.0 °F 53% 30.01 in 10.0 mi South 23.0 mph 28.8 mph N/A   Overcast
6:53 AM 57.9 °F 44.1 °F 60% 30.03 in 10.0 mi SSW 17.3 mph 26.5 mph N/A   Overcast
7:53 AM 60.1 °F 46.0 °F 60% 30.01 in 10.0 mi South 19.6 mph 26.5 mph N/A   Mostly Cloudy
8:53 AM 63.0 °F 46.9 °F 56% 30.00 in 10.0 mi South 19.6 mph 31.1 mph N/A   Mostly Cloudy
9:53 AM 64.9 °F 48.0 °F 54% 29.98 in 10.0 mi SSW 19.6 mph 29.9 mph N/A   Mostly Cloudy
10:53 AM 68.0 °F 50.0 °F 52% 29.92 in 10.0 mi SSW 23.0 mph 39.1 mph N/A   Mostly Cloudy
11:53 AM 70.0 °F 51.1 °F 51% 29.89 in 10.0 mi SSW 19.6 mph 32.2 mph N/A   Mostly Cloudy
12:53 PM 72.0 °F 51.1 °F 48% 29.87 in 10.0 mi SSW 23.0 mph 32.2 mph N/A   Mostly Cloudy
1:53 PM 71.1 °F 51.1 °F 49% 29.87 in 10.0 mi SSW 16.1 mph 35.7 mph N/A   Mostly Cloudy
2:53 PM 70.0 °F 51.1 °F 51% 29.86 in 10.0 mi SSW 15.0 mph 27.6 mph N/A   Mostly Cloudy
3:53 PM 71.1 °F 51.1 °F 49% 29.87 in 10.0 mi South 12.7 mph 23.0 mph N/A   Overcast
4:53 PM 70.0 °F 51.1 °F 51% 29.88 in 10.0 mi SSW 18.4 mph 24.2 mph N/A   Mostly Cloudy
5:53 PM 70.0 °F 51.1 °F 51% 29.89 in 10.0 mi South 18.4 mph 27.6 mph N/A   Mostly Cloudy
6:53 PM 69.1 °F 51.1 °F 53% 29.90 in 10.0 mi South 17.3 mph - N/A   Scattered Clouds
7:53 PM 68.0 °F 51.1 °F 55% 29.90 in 10.0 mi South 19.6 mph 29.9 mph N/A   Partly Cloudy
8:53 PM 68.0 °F 52.0 °F 56% 29.92 in 10.0 mi SSW 18.4 mph 26.5 mph N/A   Mostly Cloudy
9:53 PM 66.0 °F 52.0 °F 60% 29.91 in 10.0 mi South 12.7 mph 23.0 mph N/A   Scattered Clouds
10:53 PM 64.9 °F 53.1 °F 65% 29.92 in 10.0 mi South 12.7 mph 21.9 mph N/A   Clear
11:53 PM 64.9 °F 53.1 °F 65% 29.91 in 10.0 mi South 15.0 mph - N/A   Partly Cloudy